DW0946 Weather Reports


Display with metric or nautical units.
time (UTC)temp
F
wind
direction
speed
MPH
gust
MPH
rain 1hr
in
rain 24hr
in
rain mn
in
humidity
%
barometer
mb
20260506214506 58 244 0.0 4.0 0.00 0.37 0.28 58 1010.7
20260506213010 59 316 1.0 5.0 0.00 0.37 0.28 54 1010.6
20260506211505 59 266 0.0 7.0 0.00 0.37 0.28 54 1010.3
20260506210005 59 283 1.0 4.0 0.00 0.37 0.28 51 1010.2
20260506204505 61 276 0.0 5.0 0.00 0.37 0.28 56 1010.2
20260506203003 61 248 1.0 5.0 0.00 0.37 0.28 53 1010.1
20260506201503 62 233 2.0 5.0 0.00 0.37 0.28 47 1010.2
20260506200002 61 284 2.0 7.0 0.00 0.37 0.28 52 1010.0
20260506194607 61 260 3.0 8.0 0.00 0.37 0.28 49 1010.2
20260506194501 61 291 4.0 8.0 0.00 0.37 0.28 53 1010.2
20260506193100 60 53 1.0 5.0 0.00 0.37 0.28 58 1009.9
20260506191557 60 288 0.0 7.0 0.00 0.37 0.28 56 1010.3
20260506190059 60 285 1.0 4.0 0.00 0.37 0.28 59 1010.3
20260506184556 59 278 0.0 6.0 0.00 0.37 0.28 62 1010.4
20260506183059 58 329 2.0 5.0 0.00 0.37 0.28 59 1010.3
20260506181550 59 257 0.0 6.0 0.00 0.37 0.28 65 1010.3
20260506180052 58 314 3.0 7.0 0.00 0.37 0.28 62 1010.4
20260506174547 58 315 1.0 4.0 0.00 0.37 0.28 65 1010.3
20260506173048 58 276 3.0 6.0 0.00 0.37 0.28 65 1010.3
20260506171554 58 287 2.0 4.0 0.00 0.37 0.28 70 1010.4
20260506170046 56 226 1.0 8.0 0.00 0.37 0.28 76 1010.6
20260506164540 56 276 0.0 6.0 0.00 0.37 0.28 82 1010.1
20260506163043 55 55 1.0 6.0 0.00 0.37 0.28 83 1010.2
20260506161538 52 130 0.0 3.0 0.00 0.37 0.28 87 1010.3
20260506160035 51 256 3.0 6.0 0.00 0.37 0.28 94 1010.2
20260506154534 50 316 2.0 5.0 0.00 0.37 0.28 94 1010.0
20260506153032 50 264 2.0 7.0 0.00 0.37 0.28 94 1010.0
20260506151534 50 278 0.0 3.0 0.00 0.37 0.28 95 1009.8
20260506150028 50 245 2.0 5.0 0.00 0.37 0.28 95 1009.5
20260506144527 49 301 1.0 5.0 0.00 0.37 0.28 96 1009.2
20260506143025 50 263 1.0 3.0 0.00 0.37 0.28 96 1009.2
20260506141523 49 253 0.0 2.0 0.00 0.37 0.28 96 1008.7
20260506140027 49 274 0.0 4.0 0.00 0.37 0.28 96 1008.6
20260506134521 48 271 2.0 5.0 0.00 0.37 0.28 96 1008.7
20260506133038 48 305 1.0 6.0 0.00 0.37 0.28 96 1008.3
20260506131523 48 330 1.0 4.0 0.00 0.37 0.28 96 1008.2
20260506130018 46 241 0.0 3.0 0.01 0.37 0.28 95 1008.4
20260506124516 45 248 0.0 5.0 0.01 0.37 0.28 95 1008.0
20260506123014 45 124 1.0 6.0 0.01 0.37 0.28 95 1007.8
20260506121515 45 93 0.0 6.0 0.00 0.36 0.28 95 1007.7
20260506120018 45 232 2.0 5.0 0.00 0.36 0.28 95 1007.5
20260506114506 45 221 1.0 4.0 0.01 0.36 0.28 94 1006.8
20260506113004 45 262 0.0 3.0 0.01 0.36 0.28 94 1006.5
20260506111503 45 44 0.0 2.0 0.01 0.36 0.28 94 1006.3
20260506110002 45 337 0.0 3.0 0.01 0.36 0.28 94 1006.5
20260506104501 45 229 1.0 3.0 0.00 0.35 0.27 94 1006.1
20260506103104 45 221 2.0 6.0 0.00 0.35 0.27 94 1005.5
20260506101558 45 300 2.0 7.0 0.03 0.35 0.27 94 1005.5
20260506100059 46 251 1.0 6.0 0.06 0.35 0.27 94 1005.2
20260506094551 47 49 3.0 8.0 0.07 0.35 0.27 94 1005.0
20260506093047 47 283 2.0 8.0 0.10 0.35 0.27 94 1004.8
20260506091544 48 319 2.0 7.0 0.08 0.32 0.24 94 1005.2
20260506090039 50 290 1.0 9.0 0.06 0.28 0.21 94 1005.1
20260506084540 54 287 3.0 7.0 0.06 0.28 0.20 95 1004.6
20260506083036 56 167 0.0 0.0 0.04 0.25 0.17 95 1004.1
20260506081533 56 162 0.0 2.0 0.05 0.24 0.16 95 1003.9
20260506073030 56 148 0.0 3.0 0.05 0.21 0.13 95 1004.1
20260506071528 56 141 0.0 1.0 0.04 0.19 0.11 95 1004.2
20260506061522 56 123 0.0 0.0 0.01 0.15 0.07 94 1004.8
20260506044509 57 136 0.0 0.0 0.06 0.13 0.05 93 1005.6
20260506043006 57 128 0.0 0.0 0.05 0.12 0.04 93 1006.0
20260506041505 57 109 0.0 0.0 0.06 0.11 0.03 93 1006.2
20260506040002 57 109 0.0 0.0 0.03 0.08 0.00 92 1006.5
20260506034501 57 109 0.0 0.0 0.03 0.07 0.07 92 1006.5
20260506033100 57 109 0.0 0.0 0.04 0.07 0.07 92 1006.3
20260506031559 58 109 0.0 0.0 0.04 0.06 0.06 92 1006.3
20260506030100 58 109 0.0 0.0 0.03 0.05 0.05 92 1006.3
20260506024600 58 108 0.0 0.0 0.03 0.04 0.04 92 1006.3
20260506023059 58 108 0.0 0.0 0.02 0.03 0.03 91 1006.3
20260506021606 58 108 0.0 0.0 0.01 0.02 0.02 91 1006.2
20260506020052 58 108 0.0 0.0 0.01 0.02 0.02 91 1006.2
20260506014551 58 108 0.0 0.0 0.00 0.01 0.01 91 1006.0
20260506013051 58 109 0.0 0.0 0.00 0.01 0.01 91 1006.2
20260506010044 59 108 0.0 0.0 0.00 0.01 0.01 90 1006.2
20260506003057 60 108 0.0 0.0 0.01 0.01 0.01 88 1006.1
20260506001558 60 109 0.0 0.0 0.01 0.01 0.01 86 1005.9
20260506000056 62 134 0.0 1.0 0.01 0.01 0.01 83 1006.1
20260505234606 65 272 0.0 6.0 0.01 0.01 0.01 75 1006.5
20260505233050 69 252 2.0 6.0 0.00 0.00 0.00 58 1005.9
20260505231549 69 141 2.0 10.0 0.00 0.00 0.00 57 1005.6
20260505230049 70 115 3.0 11.0 0.00 0.00 0.00 57 1005.6
20260505224549 70 171 1.0 11.0 0.00 0.00 0.00 57 1005.7
20260505223047 70 153 3.0 7.0 0.00 0.00 0.00 57 1005.7
20260505221547 71 265 3.0 10.0 0.00 0.00 0.00 56 1005.8
20260505220049 71 176 4.0 9.0 0.00 0.00 0.00 56 1005.8